[[{"header":{"parameterUnit":"m.s-1","parameterCategory":1,"la1":30.2991,"la2":30.254,"lo1":-89.0895,"lo2":-89.0444,"dy":0.0017,"dx":0.0017,"nx":28,"ny":28,"refTime":"2024-12-01T09:00:00:Z","depth":0,"parameterNumber":2,"parameterNumberName":"U-component_of_WINDS"},"data":[0,0,0,0,0,0,0,0,0,0,0,0,0,0,0,0,0,0,0,0,0,0,0,0,0,0,0,0,0,0,0,0,0,0,0,0,0,0,0,0,0,0,0,0,0,0,0,0,0,0,0,0,0,0,0,0,0,0,-2.6539,-2.654,0,-2.6639,-2.664,-2.6641,-2.6566,-2.6563,-2.656,-2.6557,-2.6658,-2.6664,-2.667,0,0,0,0,0,0,0,0,0,0,0,0,0,-2.6283,-2.6288,-2.6539,-2.654,-2.6541,-2.6639,-2.664,-2.6641,-2.6567,-2.6563,-2.6559,-2.6555,-2.6657,-2.6663,-2.667,0,0,0,0,0,0,0,0,0,0,0,0,0,-2.6389,-2.6289,-2.6539,-2.6516,-2.6515,-2.6638,-2.664,-2.6642,-2.6568,-2.6563,-2.6558,-2.6553,-2.6654,-2.6663,-2.6671,-2.6822,0,0,-2.6698,-2.6701,0,0,0,0,0,0,0,0,-2.6383,-2.6399,-2.6518,-2.6518,-2.6517,-2.6585,-2.6587,-2.6702,-2.6569,-2.6548,-2.6557,-2.6551,-2.6638,-2.6648,-2.6677,-2.6827,-2.6831,-2.6698,-2.6703,-2.6707,-2.671,0,0,0,0,0,0,0,-2.6376,-2.6394,-2.6578,-2.652,-2.6519,-2.65,-2.651,-2.6608,-2.6619,-2.6549,-2.6544,-2.6557,-2.6637,-2.6669,-2.6679,-2.6833,-2.6698,-2.6706,-2.6711,-2.6714,-2.711,-2.7115,0,0,0,0,0,0,-2.6371,-2.6389,-2.6575,-2.6581,-2.6437,-2.6509,-2.652,-2.6568,-2.6618,-2.6621,-2.6561,-2.6553,-2.6657,-2.6669,-2.6682,-2.6861,-2.6707,-2.6715,-2.672,-2.7105,-2.7111,-2.7117,0,0,0,0,0,0,-2.6366,-2.6388,-2.6571,-2.6484,-2.6505,-2.6519,-2.6573,-2.6573,-2.6605,-2.6627,-2.6628,-2.6592,-2.6653,-2.667,-2.6788,-2.6864,-2.6719,-2.6727,-2.7099,-2.7107,-2.7114,-2.7221,0,0,0,0,0,0,-2.6359,-2.6387,-2.6445,-2.6485,-2.651,-2.6676,-2.6578,-2.6578,-2.662,-2.661,-2.6656,-2.6659,-2.6651,-2.6775,-2.6796,-2.6873,-2.6734,-2.7092,-2.7102,-2.7112,-2.7211,-2.7232,-2.725,0,0,0,0,0,-2.635,-2.6471,-2.6448,-2.6471,-2.6583,-2.668,-2.6694,-2.6682,-2.6626,-2.6684,-2.6698,-2.6658,-2.6852,-2.6788,-2.6811,-2.6891,-2.7087,-2.7099,-2.7111,-2.7202,-2.7228,-2.7249,0,0,0,0,0,0,-2.6438,-2.6476,-2.6451,-2.6589,-2.6632,-2.6667,-2.674,-2.671,-2.677,-2.6758,-2.6741,-2.6752,-2.6875,-2.6895,-2.6823,-2.7039,-2.6961,-2.6978,-2.7022,-2.7046,-2.7065,-2.7058,-2.6741,0,0,0,0,0,-2.6474,-2.655,-2.6579,-2.6697,-2.672,-2.6727,-2.6769,-2.6756,-2.68,-2.6817,-2.684,-2.6884,-2.6955,-2.7002,-2.7068,-2.7214,-2.7222,-2.728,-2.73,-2.7315,-2.733,-2.7408,-2.7433,-2.7157,-2.7157,-2.7156,0,0,-2.6548,-2.6578,-2.6627,-2.6716,-2.6748,-2.6826,-2.6742,-2.6829,-2.6888,-2.683,-2.6943,-2.6961,-2.7009,-2.7141,-2.72,-2.7161,-2.7409,-2.7331,-2.7343,-2.735,-2.7423,-2.7449,-2.7472,-2.7165,-2.7163,-2.7162,0,0,-2.6723,-2.6754,-2.6856,-2.689,-2.6939,-2.6943,-2.6967,-2.7008,-2.7017,-2.713,-2.7089,-2.7157,-2.728,-2.7316,-2.735,-2.7539,-2.7503,-2.7561,-2.7662,-2.7738,-2.7759,-2.7779,-2.7845,-2.7869,-2.7576,-2.7576,-2.7576,0,-2.6809,-2.6927,-2.6912,-2.7002,-2.7042,-2.6995,-2.7097,-2.7131,-2.7199,-2.7228,-2.7183,-2.7336,-2.7365,-2.7504,-2.755,-2.758,-2.7607,-2.7555,-2.7757,-2.7777,-2.7794,-2.7857,-2.7882,-2.7583,-2.7582,-2.7581,-2.758,0,-2.7029,-2.7111,-2.7188,-2.7255,-2.7304,-2.74,-2.74,-2.7451,-2.7434,-2.7442,-2.7556,-2.759,-2.7661,-2.7694,-2.7678,-2.7831,-2.7805,-2.776,-2.768,-2.7828,-2.7886,-2.791,-2.7592,-2.759,-2.7588,-2.7586,0,0,-2.7262,-2.7321,-2.7349,-2.7379,-2.743,-2.7493,-2.7587,-2.7657,-2.7701,-2.775,-2.7827,-2.7932,-2.789,-2.7929,-2.7917,-2.7984,-2.813,-2.793,-2.7931,-2.7965,-2.8299,-2.8332,-2.836,-2.8107,-2.8112,-2.8116,-2.8295,0,-2.7439,-2.7602,-2.7592,-2.7746,-2.7821,-2.7777,-2.7858,-2.7898,-2.7908,-2.7973,-2.7984,-2.8058,-2.7998,-2.8021,-2.8085,-2.8099,-2.8197,-2.8086,-2.8178,-2.8182,-2.8167,-2.8391,-2.8426,-2.8593,-2.8318,-2.8322,-2.8324,0,-2.7667,-2.7724,-2.7885,-2.7924,-2.7955,-2.8029,-2.8092,-2.8155,-2.82,-2.8202,-2.8246,-2.8223,-2.8317,-2.8236,-2.8364,-2.8289,-2.8327,-2.8339,-2.8345,-2.8352,-2.8261,-2.8403,-2.8647,-2.8671,-2.8361,-2.8358,-2.8355,0,-2.7819,-2.7937,-2.8048,-2.8075,-2.8124,-2.8176,-2.8199,-2.8239,-2.8282,-2.8337,-2.8365,-2.8431,-2.8467,-2.8518,-2.8513,-2.8455,-2.8644,-2.8562,-2.8648,-2.8648,-2.8688,-2.8686,-2.894,-2.8715,-2.8715,-2.8714,-2.8714,0,-2.8017,-2.8117,-2.8117,-2.8185,-2.8295,-2.8283,-2.8392,-2.8409,-2.8445,-2.8515,-2.8482,-2.8548,-2.8538,-2.8605,-2.8602,-2.8708,-2.8725,-2.8729,-2.8727,-2.8732,-2.8731,-2.8755,-2.8743,-2.8721,-2.8719,-2.8718,-2.8717,0,-2.8206,-2.821,-2.8327,-2.8364,-2.8376,-2.8456,-2.8487,-2.8551,-2.8559,-2.8648,-2.8668,-2.868,-2.8757,-2.8757,-2.8845,-2.8843,-2.8973,-2.8958,-2.8958,-2.8955,-2.9039,-2.9031,-2.9317,-2.9353,-2.9106,-2.9108,-2.911,0,-2.8331,-2.8407,-2.8452,-2.8497,-2.8523,-2.8595,-2.8639,-2.863,-2.8676,-2.8732,-2.879,-2.8864,-2.8922,-2.9047,-2.9063,-2.9129,-2.9115,-2.9211,-2.9125,-2.9127,-2.9115,-2.911,-2.9117,-2.9227,-2.923,-2.9232,-2.9234,0,-2.8552,-2.8551,-2.8615,-2.868,-2.8733,-2.8784,-2.8831,-2.887,-2.8865,-2.892,-2.8998,-2.9043,-2.9133,-2.9206,-2.9271,-2.9293,-2.9263,-2.9261,-2.9284,-2.9289,-2.9285,-2.9287,-2.9002,-2.9254,-2.9252,-2.9251,-2.925,-2.9249,-2.8712,-2.8777,-2.8819,-2.8891,-2.8926,-2.897,-2.9032,-2.9048,-2.9113,-2.9185,-2.9176,-2.9263,-2.9304,-2.9388,-2.9417,-2.9484,-2.945,-2.9484,-2.9492,-2.95,-2.9509,-2.9276,-2.9496,-2.9495,-2.9495,-2.9494,-2.9494,0,-2.893,-2.8955,-2.9022,-2.9089,-2.9146,-2.9113,-2.9164,-2.9213,-2.929,-2.9332,-2.939,-2.948,-2.955,-2.9572,-2.9641,-2.969,-2.9678,-2.9708,-2.9704,-2.9709,-2.9536,-2.9508,-2.9717,-2.9717,-2.9717,-2.9717,-2.9717,-2.9717,-2.9051,-2.9158,-2.9162,-2.9286,-2.931,-2.9395,-2.9426,-2.9467,-2.95,-2.9602,-2.966,-2.9674,-2.9708,-2.9778,-2.9842,-2.9846,-2.9872,-2.9908,-2.9907,-2.9744,-2.9722,-2.97,-2.9674,-2.9914,-2.9915,-3.0074,-3.0076,-3.0077]},{"header":{"parameterUnit":"m.s-1","parameterCategory":1,"la1":30.2991,"la2":30.254,"lo1":-89.0895,"lo2":-89.0444,"dy":0.0017,"dx":0.0017,"nx":28,"ny":28,"refTime":"2024-12-01T09:00:00:Z","depth":0,"parameterNumber":3,"parameterNumberName":"V-component_of_WINDS"},"data":[0,0,0,0,0,0,0,0,0,0,0,0,0,0,0,0,0,0,0,0,0,0,0,0,0,0,0,0,0,0,0,0,0,0,0,0,0,0,0,0,0,0,0,0,0,0,0,0,0,0,0,0,0,0,0,0,0,0,-2.5009,-2.5009,0,-2.4968,-2.4968,-2.4967,-2.4912,-2.4911,-2.491,-2.4909,-2.4867,-2.4867,-2.4866,0,0,0,0,0,0,0,0,0,0,0,0,0,-2.5038,-2.5038,-2.5009,-2.5009,-2.5008,-2.4968,-2.4968,-2.4967,-2.4912,-2.4911,-2.491,-2.4909,-2.4867,-2.4867,-2.4866,0,0,0,0,0,0,0,0,0,0,0,0,0,-2.5014,-2.5038,-2.5009,-2.4976,-2.4973,-2.4968,-2.4967,-2.4967,-2.4912,-2.4911,-2.491,-2.4908,-2.4867,-2.4867,-2.4866,-2.4891,0,0,-2.4865,-2.4865,0,0,0,0,0,0,0,0,-2.5016,-2.5013,-2.4981,-2.4978,-2.4975,-2.4944,-2.4962,-2.4941,-2.4913,-2.4935,-2.4909,-2.4908,-2.4894,-2.4891,-2.4886,-2.4889,-2.4887,-2.4865,-2.4865,-2.4865,-2.4864,0,0,0,0,0,0,0,-2.5017,-2.5015,-2.4993,-2.4981,-2.4977,-2.4962,-2.4957,-2.4958,-2.4923,-2.4933,-2.4929,-2.4925,-2.4891,-2.4887,-2.4885,-2.4887,-2.4865,-2.4865,-2.4864,-2.4864,-2.4904,-2.4905,0,0,0,0,0,0,-2.5024,-2.5016,-2.4994,-2.4992,-2.4992,-2.4963,-2.4957,-2.4955,-2.4922,-2.4916,-2.4926,-2.4923,-2.4888,-2.4885,-2.4883,-2.4907,-2.4865,-2.4864,-2.4864,-2.4902,-2.4904,-2.4905,0,0,0,0,0,0,-2.5025,-2.5023,-2.4996,-2.5003,-2.4998,-2.4964,-2.4962,-2.4955,-2.495,-2.4917,-2.491,-2.4928,-2.4887,-2.4884,-2.4889,-2.4905,-2.4864,-2.4864,-2.4901,-2.4903,-2.4905,-2.4958,0,0,0,0,0,0,-2.5026,-2.5023,-2.5033,-2.5003,-2.4998,-2.5003,-2.4963,-2.4955,-2.495,-2.4944,-2.4917,-2.4911,-2.4886,-2.489,-2.4888,-2.4904,-2.4863,-2.4899,-2.4902,-2.4904,-2.4954,-2.4961,-2.4967,0,0,0,0,0,-2.5027,-2.505,-2.5034,-2.5032,-2.501,-2.5004,-2.5001,-2.4971,-2.4951,-2.496,-2.4938,-2.4912,-2.4904,-2.4891,-2.4889,-2.4904,-2.4898,-2.4901,-2.4904,-2.4951,-2.496,-2.4967,0,0,0,0,0,0,-2.5084,-2.5046,-2.5027,-2.5042,-2.5027,-2.4995,-2.5006,-2.4982,-2.4972,-2.4967,-2.4931,-2.4925,-2.4934,-2.492,-2.4906,-2.4925,-2.4897,-2.4899,-2.4934,-2.4941,-2.4948,-2.495,-2.4863,0,0,0,0,0,-2.5098,-2.5097,-2.5064,-2.508,-2.5073,-2.5041,-2.5037,-2.5015,-2.4998,-2.4991,-2.497,-2.4954,-2.4947,-2.4944,-2.4936,-2.4952,-2.4944,-2.4962,-2.4968,-2.4974,-2.4976,-2.498,-2.4987,-2.4915,-2.4915,-2.4915,0,0,-2.5127,-2.5106,-2.5108,-2.509,-2.5076,-2.5075,-2.5036,-2.5037,-2.5035,-2.4991,-2.4994,-2.4978,-2.4957,-2.4967,-2.497,-2.4955,-2.4994,-2.4977,-2.4982,-2.4981,-2.4984,-2.4991,-2.4997,-2.4917,-2.4917,-2.4916,0,0,-2.5179,-2.5164,-2.5174,-2.516,-2.5138,-2.5116,-2.5119,-2.509,-2.5077,-2.5079,-2.5046,-2.5043,-2.5033,-2.5018,-2.501,-2.5053,-2.5028,-2.5052,-2.5085,-2.509,-2.5096,-2.51,-2.5114,-2.5119,-2.5055,-2.5055,-2.5055,0,-2.5218,-2.5215,-2.5183,-2.5185,-2.5177,-2.5137,-2.5145,-2.5133,-2.511,-2.5105,-2.5089,-2.5073,-2.5057,-2.5061,-2.5072,-2.5067,-2.5067,-2.5055,-2.5098,-2.5102,-2.5106,-2.5118,-2.5123,-2.5058,-2.5057,-2.5057,-2.5057,0,-2.5263,-2.5261,-2.5272,-2.5249,-2.5243,-2.5249,-2.5216,-2.5213,-2.5191,-2.517,-2.5171,-2.5149,-2.5135,-2.5135,-2.5114,-2.5135,-2.5126,-2.5105,-2.5075,-2.5116,-2.5127,-2.5132,-2.5062,-2.5061,-2.506,-2.5059,0,0,-2.535,-2.5308,-2.5312,-2.53,-2.5272,-2.527,-2.5273,-2.5258,-2.5255,-2.524,-2.524,-2.5231,-2.521,-2.52,-2.5177,-2.5182,-2.5214,-2.5158,-2.5157,-2.5168,-2.5233,-2.5249,-2.5255,-2.5197,-2.5198,-2.5198,-2.5234,0,-2.5396,-2.5398,-2.5368,-2.5378,-2.5375,-2.5335,-2.5337,-2.5319,-2.5299,-2.5293,-2.527,-2.5264,-2.5237,-2.523,-2.5233,-2.521,-2.5226,-2.5207,-2.5195,-2.5195,-2.52,-2.5261,-2.5278,-2.5313,-2.5238,-2.5239,-2.524,0,-2.5449,-2.5436,-2.5446,-2.5414,-2.5412,-2.5414,-2.5397,-2.5392,-2.537,-2.5355,-2.5342,-2.5315,-2.5314,-2.5287,-2.5283,-2.5271,-2.5264,-2.5251,-2.5252,-2.5249,-2.5219,-2.5258,-2.5324,-2.5328,-2.5246,-2.5246,-2.5245,0,-2.551,-2.5494,-2.5497,-2.5489,-2.5453,-2.5455,-2.544,-2.5416,-2.5409,-2.5393,-2.5387,-2.5373,-2.5364,-2.5352,-2.5321,-2.5305,-2.532,-2.5291,-2.5306,-2.5307,-2.5311,-2.5311,-2.5375,-2.5309,-2.5309,-2.5309,-2.5309,0,-2.5563,-2.557,-2.5523,-2.5525,-2.5531,-2.5495,-2.5502,-2.5483,-2.5462,-2.5458,-2.5423,-2.542,-2.538,-2.5372,-2.5347,-2.5346,-2.5343,-2.533,-2.5323,-2.5332,-2.5334,-2.5326,-2.5323,-2.531,-2.531,-2.5309,-2.5309,0,-2.5631,-2.56,-2.5601,-2.5566,-2.5557,-2.5563,-2.5532,-2.5532,-2.5509,-2.5504,-2.5501,-2.5465,-2.5453,-2.5421,-2.5402,-2.5385,-2.539,-2.5379,-2.5398,-2.5393,-2.5409,-2.5407,-2.5469,-2.5475,-2.5407,-2.5408,-2.5409,0,-2.5666,-2.567,-2.5636,-2.563,-2.5617,-2.5609,-2.56,-2.5565,-2.5557,-2.553,-2.5532,-2.5518,-2.5504,-2.5487,-2.5458,-2.5442,-2.5429,-2.5452,-2.5427,-2.5435,-2.5427,-2.5426,-2.5425,-2.5457,-2.5458,-2.5459,-2.546,0,-2.5731,-2.5715,-2.5705,-2.5688,-2.5678,-2.5663,-2.5646,-2.5644,-2.5603,-2.5596,-2.5583,-2.5573,-2.5551,-2.5537,-2.5516,-2.5499,-2.5472,-2.5468,-2.547,-2.5479,-2.5489,-2.5481,-2.5411,-2.5466,-2.5466,-2.5465,-2.5465,-2.5465,-2.5783,-2.5784,-2.5758,-2.5747,-2.573,-2.5714,-2.5711,-2.5687,-2.5676,-2.5655,-2.5635,-2.5624,-2.5598,-2.5567,-2.5552,-2.5542,-2.5528,-2.5532,-2.5532,-2.5533,-2.5537,-2.5491,-2.5538,-2.5538,-2.5538,-2.5537,-2.5537,0,-2.5844,-2.5826,-2.5815,-2.5792,-2.5782,-2.5757,-2.5736,-2.5729,-2.572,-2.5699,-2.5686,-2.567,-2.5654,-2.5624,-2.5605,-2.5603,-2.5589,-2.5599,-2.5598,-2.5594,-2.5551,-2.555,-2.561,-2.561,-2.5609,-2.5609,-2.5609,-2.5609,-2.5875,-2.5874,-2.5855,-2.5844,-2.5825,-2.5814,-2.5804,-2.5788,-2.5771,-2.5754,-2.5741,-2.5721,-2.5695,-2.5674,-2.5658,-2.565,-2.5644,-2.5657,-2.5644,-2.5604,-2.5597,-2.5591,-2.559,-2.5656,-2.5656,-2.5687,-2.5687,-2.5687]}]]